RH
53 73 82 85 95 94 85 84 88 89 89 88 88 87 80 71 69 71 73 73 65 60 59 57 57 53 48 47 45 45 45 43 41 41 41 42 43 42 40 38 37 37 39 40 39 41 41 41 40 38 37 36
44 58 76 81 88 97 92 85 89 89 90 95 94 91 87 79 70 68 73 74 62 57 60 61 61 56 51 49 47 47 47 44 42 41 40 42 43 42 40 38 38 37 40 41 40 40 40 41 40 39 36 35
39 46 65 79 82 91 93 88 89 91 94 98 95 92 89 80 67 64 71 71 59 56 59 60 61 59 54 52 50 49 48 46 43 40 41 42 42 42 41 40 38 37 40 41 40 39 39 39 39 37 35 33
43 43 56 76 83 85 90 89 87 92 97 94 91 89 81 69 63 64 68 67 58 54 56 57 59 60 57 54 52 51 50 47 43 40 40 41 41 42 41 40 40 38 40 41 40 39 39 39 38 35 33 32
47 48 53 72 87 86 87 90 89 92 97 93 90 86 77 70 72 73 67 66 63 55 55 58 59 61 59 56 54 52 51 47 44 41 41 42 42 42 42 42 41 38 39 41 40 39 39 39 37 35 33 32
48 56 65 77 91 90 85 89 91 93 95 94 90 83 80 81 84 81 69 66 68 64 62 61 60 62 61 58 54 51 51 47 44 42 42 43 43 43 43 42 41 39 39 40 40 40 39 39 37 34 32 31
50 59 75 85 92 91 83 85 90 93 95 95 88 80 80 81 82 82 73 66 67 69 68 65 64 64 63 60 55 51 50 48 45 45 45 44 45 44 43 42 40 39 39 39 40 40 39 38 37 34 32 31
53 57 73 87 93 92 86 85 90 92 94 95 86 78 78 78 79 78 76 69 63 67 69 67 66 65 65 62 56 51 48 48 48 47 47 45 46 45 44 42 40 40 40 39 40 40 39 38 37 34 32 31
57 54 69 88 94 93 90 88 92 92 94 95 86 78 77 78 79 74 74 72 62 65 70 69 65 62 65 62 57 52 48 49 49 48 47 47 47 46 45 42 40 41 41 40 39 39 39 38 37 35 33 32
64 56 70 89 94 93 92 92 95 95 95 96 90 84 81 81 83 76 70 68 60 58 66 71 66 63 64 62 60 55 50 50 49 49 48 47 48 47 46 43 40 41 40 39 40 39 39 38 37 37 35 33
72 63 73 90 94 94 94 95 98 97 95 95 94 91 86 83 83 76 68 64 59 53 57 67 66 64 65 64 63 57 50 50 50 50 50 48 48 48 47 44 42 41 38 38 39 38 37 38 37 37 36 34
82 78 79 86 92 95 95 96 97 98 97 96 96 92 87 83 78 74 68 65 63 54 52 60 63 63 67 67 64 57 51 51 51 51 50 49 49 49 48 46 44 42 38 37 38 38 37 38 37 37 37 36
88 91 88 85 90 96 97 97 98 98 98 97 96 93 88 84 79 73 67 64 64 56 52 58 61 62 66 68 64 57 53 53 54 53 51 50 49 49 49 46 45 43 39 37 38 38 37 37 38 37 37 36
91 95 95 92 94 98 96 96 99 98 97 97 96 94 91 86 81 77 71 66 62 54 53 56 59 62 65 67 66 58 54 55 57 56 53 50 49 49 48 47 45 43 41 39 38 38 38 37 38 39 38 36
92 96 97 97 98 99 97 97 100 99 97 98 96 96 93 84 78 74 71 69 64 55 53 56 57 61 65 66 66 60 53 56 59 58 55 52 49 49 48 47 46 45 42 40 40 39 38 38 38 38 38 38
90 95 98 99 99 99 100 99 100 99 99 99 98 99 95 87 77 70 67 68 66 58 53 57 56 60 66 67 67 62 56 58 61 60 57 54 51 49 48 48 47 45 43 41 41 40 39 38 37 37 38 40
90 93 98 100 98 98 100 99 99 99 99 99 99 99 96 93 87 81 77 71 65 57 52 54 55 58 66 67 68 68 61 59 63 63 59 56 53 51 49 48 47 45 43 42 42 41 40 39 37 37 37 39
91 92 97 100 99 98 98 98 98 98 99 99 99 98 96 94 90 88 89 81 69 60 54 53 52 54 63 68 70 71 66 61 65 65 62 59 54 51 50 48 47 45 44 43 42 41 40 39 38 37 36 37
91 92 96 99 99 98 98 98 99 98 98 98 99 99 98 95 90 88 88 85 74 62 58 57 54 53 60 69 72 72 69 65 66 67 64 62 57 52 50 49 48 45 44 44 43 42 41 40 39 37 35 36
90 91 94 96 98 99 99 100 100 99 97 97 98 99 100 96 92 89 86 84 77 66 61 61 60 56 58 66 71 71 70 67 68 68 66 64 60 55 51 50 50 47 46 45 44 44 43 42 41 39 36 36
91 91 92 93 96 99 99 99 100 99 99 98 98 98 98 96 92 89 87 84 79 70 66 67 66 61 61 67 69 69 68 67 67 65 65 65 63 59 54 51 53 52 50 48 48 47 45 44 44 42 40 37
94 92 93 94 95 98 98 97 98 99 100 99 97 97 97 95 92 90 88 86 81 73 68 70 71 66 66 71 71 69 68 67 66 65 64 63 62 62 57 53 54 57 56 54 53 51 49 48 47 46 44 41
93 93 93 94 96 97 97 96 96 98 99 98 97 98 97 94 91 89 89 87 86 80 70 66 67 65 64 68 70 69 69 68 69 68 64 60 60 62 61 56 53 56 58 56 55 54 52 51 50 49 49 46
90 92 91 92 95 96 96 95 96 97 98 98 97 97 98 96 92 89 89 87 86 85 76 66 65 63 60 66 71 69 69 71 70 66 61 59 59 61 63 58 52 54 57 57 56 56 55 54 53 52 51 50
88 90 90 91 94 96 98 98 98 98 98 98 97 97 98 97 93 91 90 88 86 85 81 72 68 66 63 65 70 70 69 71 70 65 61 61 62 60 60 57 52 52 57 60 60 59 57 55 54 53 53 52
87 90 91 92 93 94 98 100 98 98 98 99 98 97 98 98 96 92 90 89 88 88 85 78 74 71 68 65 67 70 71 71 70 66 63 64 63 59 56 52 49 49 54 60 61 61 59 57 55 54 53 52
83 88 89 91 94 95 98 100 98 97 99 99 99 98 98 99 97 93 90 89 89 89 87 84 81 76 73 70 67 69 70 69 67 65 64 65 63 59 53 48 47 46 49 55 59 61 61 59 57 54 52 50
74 83 87 89 92 95 97 100 100 98 100 100 99 99 98 99 99 96 92 90 88 87 86 86 86 83 78 75 73 70 68 66 66 66 64 65 65 61 54 49 46 46 47 52 56 60 61 60 59 54 49 45
61 73 82 86 91 95 95 98 100 100 100 100 99 99 98 99 100 96 93 90 88 88 88 88 88 87 83 80 76 72 70 67 68 70 69 67 65 60 55 52 50 49 51 54 56 60 61 60 57 52 46 42
52 62 74 83 88 92 94 96 98 98 99 99 99 100 99 100 99 97 94 92 91 91 92 92 91 90 90 87 82 77 74 69 68 71 72 68 64 61 60 60 57 55 55 56 57 58 57 55 51 48 44 41
48 54 63 75 84 89 92 95 97 97 97 97 98 99 99 99 99 99 98 97 95 93 93 95 95 94 93 93 91 86 83 78 73 72 71 69 69 69 69 67 64 60 57 55 54 52 50 49 49 48 45 41